{"data":{"norad_id":52119,"epoch":"2026-05-25T03:49:32.927232Z","epoch_age_seconds":62117,"freshness":"FRESH","line1":"1 52119U 22029AH  26145.15940888  .00000586  00000+0  54943-4 0  9991","line2":"2 52119  53.2138  95.8344 0001474  85.1483 274.9678 15.08835173232337","mean_motion":15.08835173,"eccentricity":0.0001474,"inclination_deg":53.2138,"raan_deg":95.8344,"arg_perigee_deg":85.1483,"mean_anomaly_deg":274.9678,"bstar":5.4943e-5,"rev_number":23233,"period_min":95.437859997449,"perigee_km":538.73844546726,"apogee_km":540.77784095548,"semimajor_km":6917.8951432114,"source":"CELESTRAK","updated_at":"2026-05-25T13:38:17.075025Z"}}